OEDXB LDZD-LDPL

Flight info

Callsign OEDXB
Flight time 0h 48m
Altitude 7000
Route SAL1T/31 SAL DCT LOS LOS5B
Aircraft PA34/L-SDFGRY/S

Departure

Time 2026-04-22 17:57
Airport Zadar Airport (LDZD)

Arrival

Time 2026-04-22 18:46
Airport Pula Airport (LDPL)
Time Latitude Longitude Altitude Speed Heading
2026-04-22 17:39 44.09421 15.35379 272 ft 0 kts 349°
2026-04-22 17:53 44.09424 15.35381 272 ft 3 kts 53°
2026-04-22 17:53 44.09386 15.35445 273 ft 13 kts 129°
2026-04-22 17:53 44.09428 15.35543 273 ft 15 kts 26°
2026-04-22 17:53 44.09549 15.35546 270 ft 22 kts 358°
2026-04-22 17:54 44.09638 15.35541 267 ft 13 kts 356°
2026-04-22 17:54 44.09733 15.35539 265 ft 8 kts 358°
2026-04-22 17:54 44.09805 15.35534 263 ft 12 kts 356°
2026-04-22 17:54 44.09881 15.35527 262 ft 8 kts
2026-04-22 17:55 44.09929 15.35577 261 ft 10 kts 47°
2026-04-22 17:55 44.09955 15.35613 261 ft 0 kts 46°
2026-04-22 17:56 44.09956 15.35614 261 ft 2 kts 46°
2026-04-22 17:56 44.09987 15.35659 261 ft 11 kts 45°
2026-04-22 17:56 44.10057 15.35716 262 ft 15 kts 335°
2026-04-22 17:57 44.10223 15.35493 259 ft 63 kts 316°
2026-04-22 17:57 44.10648 15.34904 307 ft 102 kts 322°
2026-04-22 17:57 44.11160 15.34218 641 ft 97 kts 323°
2026-04-22 17:57 44.11635 15.33582 1011 ft 97 kts 322°
2026-04-22 17:58 44.12115 15.32901 1316 ft 98 kts 322°
2026-04-22 17:58 44.12597 15.32260 1593 ft 96 kts 325°
2026-04-22 17:58 44.13102 15.31584 1737 ft 104 kts 323°
2026-04-22 17:58 44.13615 15.30887 2006 ft 102 kts 323°
2026-04-22 17:59 44.14122 15.30202 2257 ft 102 kts 323°
2026-04-22 17:59 44.14623 15.29522 2523 ft 100 kts 323°
2026-04-22 17:59 44.15111 15.28836 2765 ft 101 kts 323°
2026-04-22 17:59 44.15599 15.28109 2987 ft 103 kts 323°
2026-04-22 18:00 44.15935 15.27633 3155 ft 102 kts 326°
2026-04-22 18:00 44.16600 15.26720 3487 ft 101 kts 326°
2026-04-22 18:00 44.17051 15.25972 3715 ft 106 kts 304°
2026-04-22 18:00 44.16993 15.24880 3855 ft 126 kts 249°
2026-04-22 18:01 44.16397 15.23966 4038 ft 129 kts 218°
2026-04-22 18:01 44.15688 15.23169 4215 ft 132 kts 219°
2026-04-22 18:01 44.14973 15.22354 4403 ft 133 kts 219°
2026-04-22 18:01 44.14257 15.21537 4602 ft 133 kts 220°
2026-04-22 18:02 44.13543 15.20713 4807 ft 133 kts 218°
2026-04-22 18:02 44.12818 15.19892 4978 ft 136 kts 218°
2026-04-22 18:02 44.12095 15.19079 5176 ft 134 kts 218°
2026-04-22 18:02 44.11379 15.18273 5402 ft 132 kts 218°
2026-04-22 18:03 44.10663 15.17474 5577 ft 132 kts 218°
2026-04-22 18:03 44.09947 15.16686 5777 ft 131 kts 217°
2026-04-22 18:03 44.09230 15.15914 5994 ft 129 kts 217°
2026-04-22 18:03 44.08515 15.15138 6179 ft 131 kts 217°
2026-04-22 18:04 44.07791 15.14364 6400 ft 130 kts 216°
2026-04-22 18:04 44.07087 15.13596 6580 ft 130 kts 217°
2026-04-22 18:04 44.06378 15.12817 6762 ft 129 kts 218°
2026-04-22 18:04 44.05674 15.12041 6921 ft 130 kts 218°
2026-04-22 18:05 44.04933 15.11234 6980 ft 141 kts 218°
2026-04-22 18:05 44.04125 15.10357 6995 ft 151 kts 218°
2026-04-22 18:05 44.03291 15.09457 7031 ft 155 kts 218°
2026-04-22 18:05 44.02425 15.08533 7054 ft 159 kts 217°
2026-04-22 18:06 44.01562 15.07532 7013 ft 162 kts 232°
2026-04-22 18:06 44.01201 15.06126 7049 ft 154 kts 273°
2026-04-22 18:06 44.01506 15.04762 7027 ft 145 kts 312°
2026-04-22 18:06 44.02236 15.03832 7027 ft 142 kts 327°
2026-04-22 18:07 44.03028 15.02995 7018 ft 144 kts 329°
2026-04-22 18:07 44.03833 15.02150 7007 ft 146 kts 328°
2026-04-22 18:07 44.04630 15.01283 6993 ft 145 kts 328°
2026-04-22 18:07 44.05418 15.00410 6995 ft 145 kts 327°
2026-04-22 18:08 44.06206 14.99534 7004 ft 146 kts 327°
2026-04-22 18:08 44.06993 14.98663 7044 ft 143 kts 327°
2026-04-22 18:08 44.07777 14.97786 7023 ft 145 kts 327°
2026-04-22 18:08 44.08562 14.96902 7002 ft 146 kts 327°
2026-04-22 18:09 44.09333 14.96007 6983 ft 146 kts 326°
2026-04-22 18:09 44.10116 14.95108 6986 ft 149 kts 327°
2026-04-22 18:09 44.10971 14.94153 6980 ft 163 kts 327°
2026-04-22 18:09 44.11869 14.93155 6981 ft 167 kts 327°
2026-04-22 18:10 44.12781 14.92138 6985 ft 168 kts 327°
2026-04-22 18:10 44.13698 14.91116 6987 ft 169 kts 327°
2026-04-22 18:10 44.14613 14.90096 6989 ft 169 kts 327°
2026-04-22 18:10 44.15533 14.89071 6988 ft 169 kts 327°
2026-04-22 18:11 44.16453 14.88045 6980 ft 169 kts 327°
2026-04-22 18:11 44.17371 14.87022 6986 ft 169 kts 327°
2026-04-22 18:11 44.18290 14.85996 6983 ft 169 kts 327°
2026-04-22 18:11 44.19207 14.84972 6984 ft 169 kts 327°
2026-04-22 18:12 44.20113 14.83961 6987 ft 169 kts 327°
2026-04-22 18:12 44.21037 14.82930 6986 ft 171 kts 327°
2026-04-22 18:12 44.21685 14.82294 6979 ft 167 kts 337°
2026-04-22 18:12 44.23099 14.81525 6986 ft 164 kts 343°
2026-04-22 18:13 44.24155 14.80904 6985 ft 165 kts 341°
2026-04-22 18:13 44.25195 14.80228 6975 ft 166 kts 335°
2026-04-22 18:13 44.25989 14.79016 6984 ft 175 kts 307°
2026-04-22 18:13 44.26604 14.77561 6984 ft 173 kts 308°
2026-04-22 18:14 44.27249 14.76139 6989 ft 174 kts 308°
2026-04-22 18:14 44.27892 14.74706 6988 ft 175 kts 308°
2026-04-22 18:14 44.28539 14.73273 6988 ft 175 kts 308°
2026-04-22 18:14 44.29176 14.71852 6986 ft 175 kts 308°
2026-04-22 18:15 44.29818 14.70413 6988 ft 175 kts 308°
2026-04-22 18:15 44.30459 14.68971 6990 ft 175 kts 308°
2026-04-22 18:15 44.31100 14.67529 6990 ft 175 kts 308°
2026-04-22 18:15 44.31740 14.66089 6990 ft 175 kts 308°
2026-04-22 18:16 44.32380 14.64646 6987 ft 175 kts 308°
2026-04-22 18:16 44.33021 14.63203 6991 ft 175 kts 308°
2026-04-22 18:16 44.33662 14.61759 6990 ft 175 kts 308°
2026-04-22 18:16 44.34295 14.60332 6992 ft 175 kts 308°
2026-04-22 18:17 44.34938 14.58882 6990 ft 175 kts 308°
2026-04-22 18:17 44.35577 14.57437 6991 ft 175 kts 308°
2026-04-22 18:17 44.36217 14.55993 6991 ft 175 kts 308°
2026-04-22 18:17 44.36856 14.54550 6994 ft 175 kts 308°
2026-04-22 18:18 44.37495 14.53104 6995 ft 175 kts 308°
2026-04-22 18:18 44.38136 14.51657 6994 ft 175 kts 308°
2026-04-22 18:18 44.38775 14.50209 6994 ft 175 kts 308°
2026-04-22 18:18 44.39416 14.48757 6995 ft 175 kts 308°
2026-04-22 18:19 44.40055 14.47309 7000 ft 175 kts 308°
2026-04-22 18:19 44.40693 14.45866 6996 ft 174 kts 308°
2026-04-22 18:19 44.41329 14.44421 6996 ft 175 kts 308°
2026-04-22 18:19 44.41958 14.42994 6997 ft 174 kts 308°
2026-04-22 18:20 44.42593 14.41552 7000 ft 174 kts 309°
2026-04-22 18:20 44.43229 14.40111 6997 ft 174 kts 309°
2026-04-22 18:20 44.43863 14.38670 6998 ft 174 kts 309°
2026-04-22 18:20 44.44497 14.37227 6999 ft 174 kts 309°
2026-04-22 18:21 44.45130 14.35789 7000 ft 173 kts 309°
2026-04-22 18:21 44.45762 14.34351 6998 ft 174 kts 309°
2026-04-22 18:21 44.46394 14.32912 6999 ft 174 kts 309°
2026-04-22 18:21 44.47027 14.31472 6997 ft 174 kts 309°
2026-04-22 18:22 44.47660 14.30030 7002 ft 174 kts 309°
2026-04-22 18:22 44.48292 14.28587 7004 ft 174 kts 309°
2026-04-22 18:22 44.48925 14.27144 7003 ft 174 kts 309°
2026-04-22 18:22 44.49549 14.25718 7006 ft 174 kts 309°
2026-04-22 18:23 44.50179 14.24279 7007 ft 173 kts 309°
2026-04-22 18:23 44.50808 14.22842 7006 ft 173 kts 309°
2026-04-22 18:23 44.51437 14.21404 7004 ft 173 kts 309°
2026-04-22 18:24 44.52692 14.18534 7010 ft 173 kts 309°
2026-04-22 18:24 44.53321 14.17096 7008 ft 173 kts 309°
2026-04-22 18:24 44.54580 14.14211 7005 ft 174 kts 310°
2026-04-22 18:25 44.55212 14.12763 7009 ft 174 kts 310°
2026-04-22 18:25 44.55843 14.11314 7012 ft 174 kts 309°
2026-04-22 18:25 44.56472 14.09870 7013 ft 174 kts 309°
2026-04-22 18:26 44.57722 14.07000 7010 ft 173 kts 309°
2026-04-22 18:26 44.58350 14.05556 7014 ft 173 kts 310°
2026-04-22 18:26 44.58977 14.04113 7011 ft 173 kts 309°
2026-04-22 18:26 44.59604 14.02673 6977 ft 175 kts 309°
2026-04-22 18:27 44.60234 14.01222 6969 ft 173 kts 309°
2026-04-22 18:27 44.60861 13.99778 6968 ft 173 kts 310°
2026-04-22 18:27 44.61485 13.98338 6970 ft 173 kts 310°
2026-04-22 18:27 44.62112 13.96894 6971 ft 173 kts 310°
2026-04-22 18:28 44.62746 13.95460 6971 ft 173 kts 311°
2026-04-22 18:28 44.63380 13.94025 6967 ft 173 kts 310°
2026-04-22 18:28 44.63999 13.92600 6969 ft 173 kts 310°
2026-04-22 18:28 44.64592 13.91210 6967 ft 156 kts 310°
2026-04-22 18:29 44.65134 13.89940 6858 ft 150 kts 311°
2026-04-22 18:29 44.65663 13.88691 6728 ft 148 kts 310°
2026-04-22 18:29 44.66182 13.87457 6557 ft 146 kts 310°
2026-04-22 18:29 44.66696 13.86238 6387 ft 144 kts 311°
2026-04-22 18:30 44.67202 13.85035 6231 ft 142 kts 310°
2026-04-22 18:30 44.68233 13.82686 5909 ft 139 kts 311°
2026-04-22 18:30 44.68748 13.81525 5729 ft 141 kts 311°
2026-04-22 18:31 44.69265 13.80358 5571 ft 141 kts 311°
2026-04-22 18:31 44.69773 13.79202 5437 ft 141 kts 311°
2026-04-22 18:31 44.70275 13.78022 5319 ft 140 kts 311°
2026-04-22 18:31 44.70786 13.76849 5173 ft 141 kts 311°
2026-04-22 18:32 44.71304 13.75671 5027 ft 142 kts 310°
2026-04-22 18:32 44.71827 13.74485 4888 ft 143 kts 310°
2026-04-22 18:32 44.72350 13.73303 4740 ft 142 kts 310°
2026-04-22 18:32 44.72869 13.72125 4623 ft 141 kts 310°
2026-04-22 18:33 44.73377 13.70937 4486 ft 142 kts 309°
2026-04-22 18:33 44.73887 13.69733 4320 ft 145 kts 308°
2026-04-22 18:33 44.74398 13.68519 4170 ft 144 kts 309°
2026-04-22 18:33 44.74913 13.67295 3998 ft 146 kts 308°
2026-04-22 18:34 44.75420 13.66093 3957 ft 140 kts 309°
2026-04-22 18:34 44.75937 13.64887 3741 ft 149 kts 309°
2026-04-22 18:34 44.76488 13.63652 3484 ft 151 kts 309°
2026-04-22 18:34 44.77151 13.62617 3313 ft 136 kts 339°
2026-04-22 18:35 44.78030 13.62324 3133 ft 128 kts
2026-04-22 18:35 44.78906 13.62265 3022 ft 125 kts
2026-04-22 18:35 44.79778 13.62257 3014 ft 126 kts
2026-04-22 18:35 44.80666 13.62231 2992 ft 128 kts
2026-04-22 18:36 44.81554 13.62201 2992 ft 127 kts
2026-04-22 18:36 44.82438 13.62167 2992 ft 127 kts
2026-04-22 18:36 44.83322 13.62133 2985 ft 127 kts
2026-04-22 18:36 44.84204 13.62095 2984 ft 127 kts
2026-04-22 18:37 44.85075 13.62047 2986 ft 127 kts
2026-04-22 18:37 44.85953 13.61995 3000 ft 126 kts
2026-04-22 18:37 44.86547 13.61963 2997 ft 127 kts
2026-04-22 18:37 44.87718 13.61924 2980 ft 126 kts
2026-04-22 18:38 44.88426 13.62476 2983 ft 116 kts 53°
2026-04-22 18:38 44.88623 13.63543 2994 ft 115 kts 88°
2026-04-22 18:38 44.88634 13.64679 2981 ft 117 kts 85°
2026-04-22 18:39 44.88688 13.66957 2988 ft 114 kts 84°
2026-04-22 18:39 44.88728 13.68060 2989 ft 112 kts 84°
2026-04-22 18:39 44.88766 13.69140 2988 ft 107 kts 84°
2026-04-22 18:39 44.88800 13.70135 3000 ft 100 kts 84°
2026-04-22 18:40 44.88834 13.71072 2910 ft 92 kts 84°
2026-04-22 18:40 44.88859 13.71955 2764 ft 88 kts 85°
2026-04-22 18:40 44.88888 13.72814 2605 ft 87 kts 84°
2026-04-22 18:40 44.88912 13.73647 2496 ft 83 kts 85°
2026-04-22 18:41 44.88941 13.74452 2400 ft 82 kts 84°
2026-04-22 18:41 44.88965 13.75256 2300 ft 83 kts 84°
2026-04-22 18:41 44.88990 13.76087 2206 ft 86 kts 84°
2026-04-22 18:41 44.89015 13.76927 2090 ft 85 kts 85°
2026-04-22 18:42 44.89022 13.77769 1955 ft 87 kts 86°
2026-04-22 18:42 44.89036 13.78620 1824 ft 87 kts 86°
2026-04-22 18:42 44.89060 13.79458 1710 ft 86 kts 84°
2026-04-22 18:42 44.89080 13.80309 1619 ft 88 kts 85°
2026-04-22 18:43 44.89110 13.81169 1485 ft 88 kts 85°
2026-04-22 18:43 44.89138 13.82046 1399 ft 90 kts 85°
2026-04-22 18:43 44.89137 13.82948 1279 ft 93 kts 88°
2026-04-22 18:43 44.89160 13.83851 1142 ft 91 kts 84°
2026-04-22 18:44 44.89187 13.84755 978 ft 92 kts 85°
2026-04-22 18:44 44.89211 13.85649 856 ft 90 kts 85°
2026-04-22 18:44 44.89235 13.86539 743 ft 92 kts 85°
2026-04-22 18:44 44.89253 13.87443 619 ft 91 kts 88°
2026-04-22 18:45 44.89267 13.88314 481 ft 90 kts 88°
2026-04-22 18:45 44.89269 13.89188 369 ft 90 kts 85°
2026-04-22 18:45 44.89304 13.90075 253 ft 91 kts 85°
2026-04-22 18:45 44.89326 13.90933 190 ft 75 kts 86°
2026-04-22 18:46 44.89340 13.91535 207 ft 50 kts 88°
2026-04-22 18:46 44.89348 13.91842 217 ft 25 kts 88°
2026-04-22 18:46 44.89407 13.91930 218 ft 14 kts 356°
2026-04-22 18:46 44.89499 13.91927 217 ft 7 kts 356°
2026-04-22 18:47 44.89531 13.91925 217 ft 3 kts 358°
2026-04-22 18:47 44.89557 13.91930 217 ft 4 kts 31°
2026-04-22 18:47 44.89578 13.91963 218 ft 5 kts 54°
2026-04-22 18:47 44.89599 13.92005 220 ft 6 kts 56°
2026-04-22 18:48 44.89627 13.92052 221 ft 7 kts 25°
2026-04-22 18:48 44.89675 13.92058 221 ft 2 kts 40°
2026-04-22 18:48 44.89679 13.92071 222 ft 1 kts 83°
2026-04-22 18:48 44.89674 13.92092 222 ft 3 kts 136°
2026-04-22 18:49 44.89662 13.92100 222 ft 0 kts 168°